| time (UTC) | temp F | wind direction | speed knots | gust knots | rain 1hr in | rain 24hr in | rain mn in | humidity % | barometer mb |
| 20260505053712 | 64 | 315 | 0.0 | 0.0 | 0.00 | 0.01 | 0.00 | 51 | 1012.6 |
| 20260505053211 | 63 | 360 | 0.0 | 0.0 | 0.00 | 0.01 | 0.00 | 58 | 1012.7 |
| 20260505052712 | 61 | 315 | 0.0 | 1.7 | 0.00 | 0.01 | 0.00 | 60 | 1012.6 |
| 20260505052212 | 59 | 225 | 0.0 | 0.0 | 0.00 | 0.01 | 0.00 | 61 | 1012.7 |
| 20260505051712 | 58 | 315 | 0.0 | 0.0 | 0.00 | 0.01 | 0.00 | 62 | 1012.7 |
| 20260505051212 | 59 | 180 | 0.0 | 0.9 | 0.00 | 0.01 | 0.00 | 60 | 1012.7 |
| 20260505050711 | 60 | 180 | 0.0 | 1.7 | 0.00 | 0.01 | 0.00 | 62 | 1012.7 |
| 20260505050212 | 58 | 225 | 0.0 | 0.0 | 0.00 | 0.00 | 0.00 | 65 | 1012.7 |
| 20260505041712 | 47 | 180 | 0.0 | 1.7 | 0.00 | 0.01 | 0.00 | 77 | 1012.6 |
| 20260505041211 | 47 | 180 | 0.0 | 1.7 | 0.00 | 0.01 | 0.00 | 77 | 1012.6 |
| 20260505040711 | 47 | 360 | 0.0 | 0.0 | 0.00 | 0.01 | 0.00 | 77 | 1012.5 |
| 20260505040211 | 47 | 360 | 0.0 | 1.7 | 0.00 | 0.00 | 0.00 | 77 | 1012.4 |
| 20260505035711 | 47 | 180 | 0.0 | 0.9 | 0.00 | 0.01 | 0.00 | 77 | 1012.2 |
| 20260505035212 | 47 | 360 | 0.0 | 0.9 | 0.00 | 0.01 | 0.00 | 77 | 1012.3 |
| 20260505034711 | 47 | 225 | 0.0 | 0.9 | 0.00 | 0.01 | 0.00 | 77 | 1012.3 |
| 20260505034211 | 46 | 225 | 0.0 | 1.7 | 0.00 | 0.01 | 0.00 | 76 | 1012.5 |
| 20260505033711 | 47 | 315 | 0.0 | 0.0 | 0.00 | 0.01 | 0.00 | 76 | 1012.5 |
| 20260505033212 | 47 | 315 | 0.0 | 1.7 | 0.00 | 0.01 | 0.00 | 75 | 1012.6 |
| 20260505032711 | 47 | 135 | 0.0 | 0.0 | 0.00 | 0.01 | 0.00 | 75 | 1012.5 |
| 20260505032211 | 47 | 135 | 0.0 | 0.0 | 0.00 | 0.01 | 0.00 | 75 | 1012.6 |
| 20260505031711 | 48 | 225 | 0.0 | 0.0 | 0.00 | 0.01 | 0.00 | 75 | 1012.6 |
| 20260505031212 | 48 | 225 | 0.9 | 2.6 | 0.00 | 0.01 | 0.00 | 75 | 1012.7 |
| 20260505030711 | 48 | 360 | 0.0 | 1.7 | 0.00 | 0.01 | 0.00 | 74 | 1012.8 |
| 20260505030212 | 48 | 225 | 0.0 | 0.0 | 0.00 | 0.00 | 0.00 | 74 | 1012.9 |
| 20260505025712 | 49 | 180 | 0.0 | 0.9 | 0.00 | 0.01 | 0.00 | 75 | 1012.9 |
| 20260505025057 | 49 | 180 | 0.9 | 1.7 | 0.00 | 0.01 | 0.00 | 74 | 1012.9 |
| 20260505024557 | 49 | 315 | 0.9 | 1.7 | 0.00 | 0.01 | 0.00 | 74 | 1012.9 |
| 20260505024057 | 49 | 315 | 0.9 | 1.7 | 0.00 | 0.01 | 0.00 | 74 | 1012.9 |
| 20260505023557 | 49 | 225 | 0.9 | 1.7 | 0.00 | 0.01 | 0.00 | 74 | 1013.0 |
| 20260505023058 | 49 | 360 | 0.0 | 0.9 | 0.00 | 0.01 | 0.00 | 74 | 1013.0 |
| 20260505022557 | 49 | 360 | 0.0 | 0.9 | 0.00 | 0.01 | 0.00 | 74 | 1013.0 |
| 20260505021557 | 49 | 360 | 0.0 | 0.9 | 0.00 | 0.01 | 0.00 | 73 | 1013.1 |
| 20260505021057 | 49 | 360 | 0.0 | 0.9 | 0.00 | 0.01 | 0.00 | 73 | 1013.1 |
| 20260505020558 | 49 | 360 | 0.9 | 1.7 | 0.00 | 0.01 | 0.00 | 73 | 1013.1 |
| 20260505020057 | 49 | 180 | 0.0 | 1.7 | 0.00 | 0.00 | 0.00 | 73 | 1013.2 |
| 20260505015557 | 49 | 225 | 0.0 | 0.0 | 0.00 | 0.01 | 0.00 | 73 | 1013.2 |
| 20260505015057 | 49 | 270 | 0.0 | 1.7 | 0.00 | 0.01 | 0.00 | 73 | 1013.2 |
| 20260505014557 | 49 | 270 | 0.0 | 0.0 | 0.00 | 0.01 | 0.00 | 72 | 1013.3 |
| 20260505014057 | 49 | 270 | 0.0 | 0.0 | 0.00 | 0.01 | 0.00 | 72 | 1013.3 |
| 20260505013558 | 50 | 360 | 0.0 | 0.9 | 0.00 | 0.01 | 0.00 | 72 | 1013.3 |
| 20260505013057 | 50 | 360 | 0.0 | 0.0 | 0.00 | 0.01 | 0.00 | 72 | 1013.3 |
| 20260505012557 | 50 | 180 | 0.9 | 1.7 | 0.00 | 0.01 | 0.00 | 72 | 1013.3 |
| 20260505012058 | 50 | 270 | 0.0 | 0.0 | 0.00 | 0.01 | 0.00 | 72 | 1013.4 |
| 20260505011557 | 50 | 270 | 0.0 | 0.0 | 0.00 | 0.01 | 0.00 | 72 | 1013.3 |
| 20260505011057 | 50 | 225 | 0.0 | 0.0 | 0.00 | 0.01 | 0.00 | 72 | 1013.4 |
| 20260505010557 | 50 | 225 | 0.0 | 0.0 | 0.00 | 0.01 | 0.00 | 72 | 1013.3 |
| 20260505010057 | 50 | 270 | 0.0 | 0.0 | 0.00 | 0.00 | 0.00 | 72 | 1013.4 |
| 20260505005557 | 50 | 270 | 0.0 | 1.7 | 0.00 | 0.00 | 0.00 | 72 | 1013.4 |
| 20260505005058 | 50 | 225 | 0.0 | 0.0 | 0.00 | 0.00 | 0.00 | 71 | 1013.4 |
| 20260505004557 | 50 | 225 | 0.0 | 1.7 | 0.00 | 0.00 | 0.00 | 71 | 1013.4 |
| 20260505004057 | 50 | 315 | 0.0 | 0.0 | 0.00 | 0.00 | 0.00 | 71 | 1013.4 |
| 20260505003557 | 50 | 180 | 0.0 | 0.9 | 0.00 | 0.00 | 0.00 | 71 | 1013.4 |
| 20260505003057 | 50 | 180 | 0.0 | 0.9 | 0.00 | 0.00 | 0.00 | 71 | 1013.4 |
| 20260505002557 | 50 | 180 | 0.0 | 0.0 | 0.00 | 0.00 | 0.00 | 71 | 1013.6 |
| 20260505002057 | 51 | 180 | 0.0 | 0.0 | 0.00 | 0.00 | 0.00 | 71 | 1013.6 |
| 20260505001557 | 51 | 270 | 0.9 | 1.7 | 0.00 | 0.00 | 0.00 | 71 | 1013.5 |
| 20260505001057 | 51 | 180 | 0.0 | 0.0 | 0.00 | 0.00 | 0.00 | 71 | 1013.6 |
| 20260505000557 | 51 | 225 | 0.0 | 1.7 | 0.00 | 0.00 | 0.00 | 71 | 1013.7 |
| 20260505000057 | 51 | 225 | 0.0 | 1.7 | 0.00 | 0.00 | 0.00 | 71 | 1013.7 |
| 20260504235557 | 51 | 270 | 0.0 | 0.0 | 0.00 | 0.00 | 0.00 | 72 | 1013.7 |
| 20260504235057 | 51 | 180 | 0.0 | 1.7 | 0.00 | 0.00 | 0.00 | 72 | 1013.8 |
| 20260504234557 | 51 | 315 | 0.0 | 1.7 | 0.00 | 0.00 | 0.00 | 71 | 1014.0 |
| 20260504234057 | 51 | 360 | 0.0 | 0.0 | 0.00 | 0.00 | 0.00 | 71 | 1013.8 |
| 20260504233557 | 51 | 180 | 0.0 | 0.0 | 0.00 | 0.00 | 0.00 | 70 | 1013.9 |
| 20260504233056 | 51 | 180 | 0.0 | 0.0 | 0.00 | 0.00 | 0.00 | 70 | 1013.9 |
| 20260504232557 | 51 | 180 | 0.0 | 1.7 | 0.00 | 0.00 | 0.00 | 70 | 1014.0 |
| 20260504232057 | 51 | 315 | 0.0 | 0.0 | 0.00 | 0.00 | 0.00 | 70 | 1014.1 |
| 20260504231557 | 51 | 180 | 0.0 | 0.0 | 0.00 | 0.00 | 0.00 | 70 | 1014.0 |
| 20260504231057 | 51 | 360 | 0.0 | 1.7 | 0.00 | 0.00 | 0.00 | 70 | 1014.0 |
| 20260504230557 | 51 | 180 | 0.0 | 1.7 | 0.00 | 0.00 | 0.00 | 70 | 1014.0 |
| 20260504230057 | 51 | 270 | 0.0 | 0.0 | 0.00 | 0.00 | 0.00 | 70 | 1014.2 |
| 20260504225557 | 51 | 270 | 0.0 | 0.0 | 0.00 | 0.00 | 0.00 | 69 | 1014.2 |
| 20260504225057 | 52 | 158 | 0.0 | 0.0 | 0.00 | 0.00 | 0.00 | 68 | 1014.1 |
| 20260504224557 | 52 | 45 | 0.0 | 0.0 | 0.00 | 0.00 | 0.00 | 68 | 1014.3 |
| 20260504224056 | 53 | 180 | 0.0 | 0.0 | 0.00 | 0.00 | 0.00 | 67 | 1014.3 |
| 20260504223557 | 53 | 180 | 0.0 | 0.0 | 0.00 | 0.00 | 0.00 | 67 | 1014.3 |
| 20260504223057 | 53 | 180 | 0.9 | 1.7 | 0.00 | 0.00 | 0.00 | 67 | 1014.3 |
| 20260504222557 | 53 | 225 | 0.9 | 1.7 | 0.00 | 0.00 | 0.00 | 67 | 1014.4 |
| 20260504222057 | 53 | 360 | 0.9 | 1.7 | 0.00 | 0.00 | 0.00 | 66 | 1014.5 |
| 20260504221556 | 54 | 45 | 0.0 | 1.7 | 0.00 | 0.00 | 0.00 | 67 | 1014.4 |
| 20260504221058 | 53 | 180 | 0.9 | 1.7 | 0.00 | 0.00 | 0.00 | 68 | 1014.4 |
| 20260504220558 | 53 | 135 | 0.0 | 1.7 | 0.00 | 0.00 | 0.00 | 69 | 1014.5 |
| 20260504220057 | 53 | 45 | 0.9 | 1.7 | 0.00 | 0.00 | 0.00 | 67 | 1014.6 |
| 20260504215557 | 53 | 45 | 0.9 | 1.7 | 0.00 | 0.01 | 0.00 | 67 | 1014.6 |
| 20260504215056 | 53 | 180 | 0.0 | 0.9 | 0.00 | 0.01 | 0.00 | 66 | 1014.5 |
| 20260504214557 | 54 | 315 | 0.0 | 0.0 | 0.00 | 0.01 | 0.00 | 64 | 1014.5 |
| 20260504214056 | 54 | 180 | 0.0 | 0.0 | 0.00 | 0.01 | 0.00 | 63 | 1014.5 |
| 20260504213557 | 54 | 180 | 0.0 | 0.0 | 0.00 | 0.01 | 0.00 | 63 | 1014.5 |
| 20260504213057 | 55 | 180 | 0.0 | 0.0 | 0.00 | 0.01 | 0.00 | 61 | 1014.6 |
| 20260504212557 | 55 | 180 | 0.0 | 1.7 | 0.00 | 0.01 | 0.00 | 61 | 1014.7 |
| 20260504212057 | 55 | 225 | 0.0 | 1.7 | 0.00 | 0.01 | 0.00 | 60 | 1014.7 |
| 20260504211557 | 55 | 225 | 0.0 | 1.7 | 0.00 | 0.01 | 0.00 | 60 | 1014.7 |
| 20260504211057 | 55 | 315 | 0.0 | 0.0 | 0.00 | 0.01 | 0.00 | 60 | 1014.7 |
| 20260504210557 | 55 | 225 | 0.0 | 1.7 | 0.00 | 0.01 | 0.00 | 60 | 1014.8 |
| 20260504210057 | 56 | 315 | 0.0 | 0.0 | 0.00 | 0.00 | 0.00 | 57 | 1014.5 |
| 20260504205450 | 56 | 180 | 0.0 | 0.0 | 0.00 | 0.01 | 0.00 | 55 | 1014.7 |
| 20260504204950 | 57 | 180 | 0.0 | 0.9 | 0.00 | 0.01 | 0.00 | 56 | 1014.5 |
| 20260504204451 | 57 | 360 | 0.0 | 1.7 | 0.00 | 0.01 | 0.00 | 55 | 1014.6 |
| 20260504203950 | 58 | 180 | 0.0 | 0.0 | 0.00 | 0.01 | 0.00 | 53 | 1014.5 |
| 20260504203451 | 58 | 225 | 0.0 | 0.0 | 0.00 | 0.01 | 0.00 | 53 | 1014.5 |
| 20260504202950 | 59 | 225 | 0.0 | 0.0 | 0.00 | 0.01 | 0.00 | 53 | 1014.6 |
| 20260504202451 | 59 | 135 | 0.0 | 0.0 | 0.00 | 0.01 | 0.00 | 51 | 1014.5 |
| 20260504201950 | 59 | 270 | 0.0 | 0.9 | 0.00 | 0.01 | 0.00 | 51 | 1014.5 |
| 20260504201450 | 60 | 315 | 0.0 | 0.0 | 0.00 | 0.01 | 0.00 | 51 | 1014.5 |
| 20260504200950 | 60 | 360 | 0.9 | 1.7 | 0.00 | 0.01 | 0.00 | 50 | 1014.6 |
| 20260504200450 | 61 | 270 | 0.0 | 0.0 | 0.00 | 0.01 | 0.00 | 49 | 1014.6 |
| 20260504195950 | 62 | 225 | 0.0 | 0.0 | 0.00 | 0.01 | 0.00 | 48 | 1014.6 |
| 20260504195450 | 63 | 225 | 0.0 | 1.7 | 0.00 | 0.01 | 0.00 | 47 | 1014.5 |
| 20260504194950 | 63 | 270 | 0.0 | 1.7 | 0.00 | 0.01 | 0.00 | 47 | 1014.3 |
| 20260504194451 | 64 | 225 | 0.9 | 1.7 | 0.00 | 0.01 | 0.00 | 42 | 1014.4 |
| 20260504193950 | 65 | 225 | 0.0 | 1.7 | 0.00 | 0.01 | 0.00 | 41 | 1014.4 |
| 20260504193450 | 65 | 225 | 0.0 | 0.9 | 0.00 | 0.01 | 0.00 | 41 | 1014.4 |
| 20260504192951 | 66 | 270 | 0.9 | 1.7 | 0.00 | 0.01 | 0.00 | 40 | 1014.4 |
| 20260504192450 | 67 | 225 | 0.9 | 1.7 | 0.00 | 0.01 | 0.00 | 40 | 1014.4 |
| 20260504191950 | 67 | 180 | 0.9 | 2.6 | 0.00 | 0.01 | 0.00 | 39 | 1014.3 |
| 20260504191450 | 68 | 270 | 0.9 | 3.5 | 0.00 | 0.01 | 0.00 | 39 | 1014.2 |
| 20260504190950 | 67 | 225 | 1.7 | 4.3 | 0.00 | 0.01 | 0.00 | 39 | 1014.2 |
| 20260504190450 | 68 | 225 | 0.9 | 2.6 | 0.00 | 0.01 | 0.00 | 39 | 1014.1 |
| 20260504185951 | 68 | 180 | 1.7 | 5.2 | 0.00 | 0.01 | 0.00 | 38 | 1014.1 |
| 20260504185450 | 68 | 180 | 0.0 | 0.9 | 0.00 | 0.01 | 0.00 | 38 | 1013.9 |
| 20260504184950 | 69 | 180 | 0.9 | 3.5 | 0.00 | 0.01 | 0.00 | 37 | 1013.9 |
| 20260504184450 | 69 | 135 | 0.9 | 1.7 | 0.00 | 0.01 | 0.00 | 37 | 1014.0 |
| 20260504183950 | 69 | 180 | 0.9 | 2.6 | 0.00 | 0.01 | 0.00 | 36 | 1013.8 |
| 20260504183451 | 69 | 225 | 1.7 | 3.5 | 0.00 | 0.01 | 0.00 | 35 | 1013.8 |
| 20260504182950 | 70 | 180 | 1.7 | 5.2 | 0.00 | 0.01 | 0.00 | 36 | 1013.9 |
| 20260504182450 | 70 | 135 | 0.0 | 1.7 | 0.00 | 0.01 | 0.00 | 35 | 1013.8 |
| 20260504181950 | 71 | 225 | 1.7 | 3.5 | 0.00 | 0.01 | 0.00 | 34 | 1013.7 |
| 20260504181450 | 72 | 225 | 1.7 | 3.5 | 0.00 | 0.01 | 0.00 | 33 | 1013.7 |
| 20260504180950 | 72 | 225 | 1.7 | 3.5 | 0.00 | 0.01 | 0.00 | 33 | 1013.7 |
| 20260504180450 | 72 | 225 | 1.7 | 3.5 | 0.00 | 0.01 | 0.00 | 33 | 1013.7 |
| 20260504175950 | 72 | 180 | 0.9 | 4.3 | 0.00 | 0.01 | 0.00 | 33 | 1013.7 |
| 20260504175450 | 73 | 135 | 0.9 | 3.5 | 0.00 | 0.01 | 0.00 | 31 | 1013.7 |
| 20260504174950 | 73 | 225 | 1.7 | 4.3 | 0.00 | 0.01 | 0.00 | 31 | 1013.6 |
| 20260504174450 | 73 | 225 | 1.7 | 5.2 | 0.00 | 0.01 | 0.00 | 31 | 1013.5 |
| 20260504173950 | 73 | 180 | 2.6 | 7.0 | 0.00 | 0.01 | 0.00 | 31 | 1013.5 |
| 20260504173450 | 73 | 180 | 1.7 | 4.3 | 0.00 | 0.01 | 0.00 | 31 | 1013.6 |
| 20260504172950 | 73 | 90 | 1.7 | 6.1 | 0.00 | 0.01 | 0.00 | 31 | 1013.6 |
| 20260504172450 | 74 | 135 | 2.6 | 7.0 | 0.00 | 0.01 | 0.00 | 31 | 1013.5 |
| 20260504171950 | 74 | 225 | 2.6 | 7.0 | 0.00 | 0.01 | 0.00 | 30 | 1013.5 |
| 20260504171450 | 74 | 135 | 1.7 | 5.2 | 0.00 | 0.01 | 0.00 | 30 | 1013.5 |
| 20260504170950 | 74 | 180 | 2.6 | 7.0 | 0.00 | 0.01 | 0.00 | 30 | 1013.3 |
| 20260504170450 | 75 | 158 | 1.7 | 6.1 | 0.00 | 0.01 | 0.00 | 30 | 1013.5 |
| 20260504150950 | 82 | 180 | 0.9 | 3.5 | 0.00 | 0.01 | 0.00 | 21 | 1014.1 |
| 20260504150449 | 82 | 90 | 0.9 | 2.6 | 0.00 | 0.01 | 0.00 | 21 | 1014.1 |
| 20260504140949 | 83 | 158 | 1.7 | 6.1 | 0.00 | 0.01 | 0.00 | 22 | 1014.8 |
| 20260504140450 | 82 | 135 | 2.6 | 7.0 | 0.00 | 0.01 | 0.00 | 21 | 1015.0 |
| 20260504130449 | 82 | 135 | 1.7 | 3.5 | 0.00 | 0.01 | 0.00 | 21 | 1015.7 |
| 20260504110449 | 76 | 135 | 2.6 | 7.0 | 0.00 | 0.01 | 0.00 | 32 | 1017.1 |
| 20260504100449 | 75 | 270 | 1.7 | 3.5 | 0.00 | 0.01 | 0.00 | 31 | 1017.8 |
| 20260504081722 | 70 | 135 | 0.9 | 3.5 | 0.00 | 0.01 | 0.00 | 43 | 1018.4 |
| 20260504081223 | 70 | 135 | 0.9 | 3.5 | 0.01 | 0.01 | 0.00 | 42 | 1018.5 |
| 20260504080722 | 69 | 135 | 0.9 | 1.7 | 0.01 | 0.01 | 0.00 | 42 | 1018.4 |
| 20260504080222 | 70 | 45 | 0.9 | 3.5 | 0.00 | 0.00 | 0.00 | 42 | 1018.4 |
| 20260504070222 | 66 | 180 | 0.9 | 3.5 | 0.00 | 0.00 | 0.00 | 47 | 1018.3 |
| 20260504060222 | 63 | 360 | 0.0 | 0.0 | 0.00 | 0.00 | 0.00 | 63 | 1018.1 |